[[{"header":{"parameterUnit":"m.s-1","parameterCategory":1,"la1":30.2991,"la2":30.254,"lo1":-89.0895,"lo2":-89.0444,"dy":0.0017,"dx":0.0017,"nx":28,"ny":28,"refTime":"2023-08-28T21:00:00:Z","depth":0,"parameterNumber":2,"parameterNumberName":"U-component_of_WINDS"},"data":[0,0,0,0,0,0,0,0,0,0,0,0,0,0,0,0,0,0,0,0,0,0,0,0,0,0,0,0,0,0,0,0,0,0,0,0,0,0,0,0,0,0,0,0,0,0,0,0,0,0,0,0,0,0,0,0,0,0,-4.101,-4.101,0,-4.1054,-4.1055,-4.1055,-4.1001,-4.0999,-4.0997,-4.0995,-4.104,-4.1043,-4.1046,0,0,0,0,0,0,0,0,0,0,0,0,0,-4.0878,-4.0881,-4.101,-4.101,-4.1011,-4.1054,-4.1055,-4.1055,-4.1002,-4.0999,-4.0997,-4.0995,-4.1039,-4.1042,-4.1046,0,0,0,0,0,0,0,0,0,0,0,0,0,-4.093,-4.0882,-4.101,-4.0989,-4.0988,-4.1054,-4.1055,-4.1056,-4.1002,-4.0999,-4.0996,-4.0993,-4.1037,-4.1042,-4.1046,-4.1134,0,0,-4.106,-4.1062,0,0,0,0,0,0,0,0,-4.0927,-4.0935,-4.0992,-4.0991,-4.0989,-4.1019,-4.1025,-4.1082,-4.1003,-4.0997,-4.0995,-4.0992,-4.1035,-4.104,-4.1055,-4.1136,-4.1138,-4.1061,-4.1063,-4.1065,-4.1067,0,0,0,0,0,0,0,-4.0924,-4.0933,-4.1027,-4.0993,-4.0991,-4.0978,-4.0982,-4.1035,-4.1032,-4.0997,-4.0993,-4.0999,-4.1034,-4.105,-4.1055,-4.1139,-4.106,-4.1064,-4.1067,-4.1069,-4.1297,-4.13,0,0,0,0,0,0,-4.0923,-4.093,-4.1026,-4.1029,-4.095,-4.0983,-4.0987,-4.1013,-4.1031,-4.1031,-4.1002,-4.0997,-4.1044,-4.105,-4.1057,-4.1161,-4.1065,-4.107,-4.1072,-4.1294,-4.1298,-4.1302,0,0,0,0,0,0,-4.092,-4.0932,-4.1024,-4.0979,-4.0989,-4.0988,-4.1017,-4.1015,-4.1031,-4.1035,-4.1034,-4.1019,-4.1042,-4.105,-4.1116,-4.1162,-4.1072,-4.1076,-4.129,-4.1295,-4.13,-4.1371,0,0,0,0,0,0,-4.0917,-4.0931,-4.0964,-4.098,-4.0992,-4.1082,-4.102,-4.1018,-4.104,-4.1033,-4.1051,-4.1051,-4.104,-4.1109,-4.112,-4.1167,-4.1079,-4.1286,-4.1292,-4.1298,-4.1364,-4.1378,-4.1389,0,0,0,0,0,-4.0912,-4.0981,-4.0966,-4.0978,-4.1033,-4.1085,-4.1092,-4.1078,-4.1043,-4.1077,-4.108,-4.105,-4.1156,-4.1117,-4.1128,-4.1177,-4.1283,-4.1291,-4.1298,-4.1359,-4.1375,-4.1389,0,0,0,0,0,0,-4.0969,-4.0983,-4.0966,-4.1042,-4.1063,-4.1076,-4.1117,-4.1096,-4.1126,-4.1119,-4.1101,-4.1106,-4.1176,-4.1183,-4.1139,-4.1264,-4.1214,-4.1224,-4.1256,-4.1272,-4.1284,-4.1279,-4.1083,0,0,0,0,0,-4.0991,-4.1033,-4.1042,-4.1109,-4.112,-4.1118,-4.1139,-4.1128,-4.1148,-4.1156,-4.1164,-4.1185,-4.1223,-4.1248,-4.1283,-4.1367,-4.137,-4.1406,-4.1419,-4.1429,-4.1437,-4.1483,-4.1499,-4.1326,-4.1326,-4.1326,0,0,-4.1035,-4.1048,-4.1075,-4.1121,-4.1135,-4.1179,-4.1125,-4.1172,-4.1205,-4.1163,-4.1226,-4.1233,-4.1255,-4.1331,-4.1364,-4.1339,-4.1486,-4.1438,-4.1446,-4.1449,-4.1493,-4.1509,-4.1523,-4.1331,-4.133,-4.133,0,0,-4.1139,-4.1153,-4.121,-4.1228,-4.1252,-4.125,-4.1264,-4.1281,-4.1284,-4.1348,-4.1318,-4.1357,-4.1422,-4.144,-4.1457,-4.1573,-4.1547,-4.1585,-4.1649,-4.1694,-4.1707,-4.1719,-4.176,-4.1775,-4.1594,-4.1594,-4.1594,0,-4.119,-4.1255,-4.1242,-4.1293,-4.1315,-4.1282,-4.1341,-4.1358,-4.1391,-4.1407,-4.1379,-4.1462,-4.1475,-4.1555,-4.1583,-4.1599,-4.1615,-4.1581,-4.1707,-4.1719,-4.173,-4.1768,-4.1784,-4.1598,-4.1598,-4.1597,-4.1597,0,-4.1318,-4.1364,-4.1408,-4.1443,-4.147,-4.1524,-4.152,-4.1549,-4.1537,-4.1538,-4.1604,-4.1619,-4.1657,-4.1676,-4.1663,-4.1755,-4.1739,-4.171,-4.1658,-4.1751,-4.1787,-4.1802,-4.1605,-4.1603,-4.1602,-4.1601,0,0,-4.1453,-4.1485,-4.1501,-4.1518,-4.1544,-4.1579,-4.1634,-4.1672,-4.1697,-4.1724,-4.1768,-4.1827,-4.1801,-4.1821,-4.1811,-4.1851,-4.1942,-4.1816,-4.1817,-4.1839,-4.2045,-4.2065,-4.2083,-4.1927,-4.193,-4.1932,-4.2042,0,-4.1557,-4.1651,-4.1643,-4.1732,-4.1775,-4.1747,-4.1794,-4.1816,-4.182,-4.1857,-4.1862,-4.1904,-4.1866,-4.1878,-4.1917,-4.1923,-4.1983,-4.1915,-4.1968,-4.197,-4.1961,-4.2102,-4.2123,-4.2226,-4.2057,-4.2059,-4.2061,0,-4.1688,-4.1721,-4.1815,-4.1837,-4.1855,-4.1898,-4.1934,-4.197,-4.1995,-4.1996,-4.2021,-4.2005,-4.206,-4.201,-4.2087,-4.2041,-4.2063,-4.207,-4.2074,-4.2076,-4.2019,-4.2107,-4.2259,-4.2274,-4.2083,-4.2081,-4.208,0,-4.1777,-4.1845,-4.191,-4.1926,-4.1954,-4.1985,-4.1998,-4.202,-4.2045,-4.2077,-4.2093,-4.2132,-4.2152,-4.2183,-4.2178,-4.2142,-4.2257,-4.2206,-4.2259,-4.2259,-4.2281,-4.228,-4.2438,-4.2299,-4.2299,-4.2299,-4.2298,0,-4.1892,-4.195,-4.1951,-4.1991,-4.2056,-4.2048,-4.2113,-4.2122,-4.2143,-4.2185,-4.2164,-4.2203,-4.2196,-4.2236,-4.2234,-4.2298,-4.2308,-4.231,-4.2308,-4.231,-4.231,-4.2323,-4.2315,-4.2303,-4.2302,-4.2301,-4.23,0,-4.2,-4.2003,-4.2073,-4.2096,-4.2103,-4.215,-4.2169,-4.2207,-4.2212,-4.2265,-4.2277,-4.2284,-4.233,-4.233,-4.2382,-4.2381,-4.2459,-4.245,-4.2451,-4.2448,-4.2501,-4.2495,-4.2671,-4.2694,-4.2542,-4.2543,-4.2544,0,-4.2072,-4.2117,-4.2146,-4.2173,-4.2188,-4.2232,-4.2258,-4.2254,-4.2282,-4.2316,-4.235,-4.2395,-4.243,-4.2506,-4.2516,-4.2556,-4.2547,-4.2606,-4.2553,-4.2555,-4.2547,-4.2544,-4.2548,-4.2616,-4.2617,-4.2619,-4.262,0,-4.2199,-4.22,-4.2238,-4.228,-4.2312,-4.2343,-4.2372,-4.2396,-4.2394,-4.2427,-4.2475,-4.2503,-4.2558,-4.2603,-4.2643,-4.2657,-4.2639,-4.2637,-4.2651,-4.2653,-4.2652,-4.2653,-4.2478,-4.2632,-4.2631,-4.263,-4.2629,-4.2629,-4.2291,-4.233,-4.2357,-4.2402,-4.2424,-4.2453,-4.249,-4.2501,-4.2541,-4.2586,-4.2582,-4.2635,-4.2662,-4.2715,-4.2733,-4.2775,-4.2754,-4.2775,-4.2779,-4.2784,-4.279,-4.2647,-4.2782,-4.2782,-4.2782,-4.2781,-4.2781,0,-4.2416,-4.2433,-4.2475,-4.2518,-4.2554,-4.2536,-4.2568,-4.2599,-4.2647,-4.2674,-4.271,-4.2767,-4.2811,-4.2826,-4.287,-4.2901,-4.2894,-4.2913,-4.2909,-4.2913,-4.2806,-4.2789,-4.2918,-4.2918,-4.2918,-4.2918,-4.2918,-4.2918,-4.2485,-4.2551,-4.2555,-4.2633,-4.2649,-4.2703,-4.2723,-4.2749,-4.2771,-4.2836,-4.2873,-4.2883,-4.2906,-4.2952,-4.2993,-4.2996,-4.3013,-4.3035,-4.3035,-4.2934,-4.292,-4.2907,-4.2891,-4.3039,-4.3039,-4.3138,-4.3139,-4.3139]},{"header":{"parameterUnit":"m.s-1","parameterCategory":1,"la1":30.2991,"la2":30.254,"lo1":-89.0895,"lo2":-89.0444,"dy":0.0017,"dx":0.0017,"nx":28,"ny":28,"refTime":"2023-08-28T21:00:00:Z","depth":0,"parameterNumber":3,"parameterNumberName":"V-component_of_WINDS"},"data":[0,0,0,0,0,0,0,0,0,0,0,0,0,0,0,0,0,0,0,0,0,0,0,0,0,0,0,0,0,0,0,0,0,0,0,0,0,0,0,0,0,0,0,0,0,0,0,0,0,0,0,0,0,0,0,0,0,0,0.3999,0.3999,0,0.4018,0.4018,0.4018,0.4011,0.4011,0.4011,0.401,0.403,0.4031,0.4032,0,0,0,0,0,0,0,0,0,0,0,0,0,0.3958,0.3959,0.3999,0.3999,0.3999,0.4018,0.4018,0.4018,0.4011,0.4011,0.401,0.401,0.403,0.4031,0.4032,0,0,0,0,0,0,0,0,0,0,0,0,0,0.3976,0.3959,0.3999,0.3998,0.3998,0.4018,0.4018,0.4018,0.4012,0.4011,0.401,0.401,0.4029,0.4031,0.4032,0.4053,0,0,0.4036,0.4037,0,0,0,0,0,0,0,0,0.3975,0.3978,0.3998,0.3998,0.3999,0.4011,0.4011,0.403,0.4012,0.4007,0.401,0.4009,0.4024,0.4026,0.4031,0.4054,0.4055,0.4036,0.4037,0.4038,0.4038,0,0,0,0,0,0,0,0.3974,0.3977,0.4006,0.3998,0.3999,0.3997,0.3999,0.4014,0.4019,0.4007,0.4007,0.4009,0.4024,0.403,0.4031,0.4055,0.4036,0.4038,0.4038,0.4039,0.4096,0.4097,0,0,0,0,0,0,0.3972,0.3976,0.4006,0.4007,0.3985,0.3998,0.4001,0.4008,0.4019,0.402,0.4009,0.4008,0.4028,0.403,0.4032,0.4057,0.4038,0.4039,0.404,0.4096,0.4096,0.4097,0,0,0,0,0,0,0.3972,0.3975,0.4005,0.3991,0.3995,0.4,0.4008,0.4009,0.4014,0.402,0.4021,0.4014,0.4027,0.403,0.4048,0.4058,0.404,0.4041,0.4095,0.4096,0.4097,0.4108,0,0,0,0,0,0,0.397,0.3975,0.3983,0.3991,0.3996,0.402,0.4009,0.401,0.4016,0.4015,0.4025,0.4026,0.4027,0.4046,0.4049,0.406,0.4042,0.4094,0.4095,0.4096,0.4107,0.4109,0.4112,0,0,0,0,0,0.3969,0.3986,0.3983,0.3987,0.4006,0.4021,0.4023,0.4024,0.4017,0.4025,0.4029,0.4026,0.4056,0.4048,0.4051,0.4062,0.4093,0.4095,0.4096,0.4106,0.4109,0.4112,0,0,0,0,0,0,0.3979,0.3987,0.3984,0.4004,0.4012,0.402,0.403,0.4027,0.4037,0.4036,0.4037,0.4039,0.4057,0.4062,0.4052,0.4083,0.4074,0.4076,0.408,0.4083,0.4085,0.4084,0.4043,0,0,0,0,0,0.3983,0.3994,0.4001,0.4018,0.4022,0.4025,0.4032,0.4032,0.404,0.4043,0.4048,0.4057,0.4068,0.4076,0.4087,0.4107,0.4109,0.4117,0.4119,0.4121,0.4123,0.4134,0.4138,0.4102,0.4102,0.4102,0,0,0.3992,0.3998,0.4005,0.402,0.4026,0.4038,0.4028,0.4041,0.405,0.4045,0.4062,0.4066,0.4075,0.4095,0.4103,0.4099,0.4133,0.4123,0.4125,0.4126,0.4136,0.414,0.4143,0.4103,0.4103,0.4103,0,0,0.4015,0.4021,0.4035,0.4041,0.405,0.4052,0.4056,0.4064,0.4066,0.4083,0.408,0.409,0.411,0.4117,0.4123,0.4148,0.4145,0.4151,0.4164,0.4175,0.4177,0.418,0.4189,0.4192,0.4153,0.4153,0.4153,0,0.4026,0.4043,0.4043,0.4056,0.4063,0.4058,0.4073,0.4079,0.4091,0.4096,0.409,0.4115,0.4121,0.4142,0.4148,0.4153,0.4157,0.415,0.4177,0.4179,0.4182,0.419,0.4193,0.4154,0.4154,0.4154,0.4154,0,0.4055,0.4068,0.4078,0.4089,0.4097,0.4111,0.4113,0.4121,0.412,0.4123,0.414,0.4147,0.4159,0.4164,0.4163,0.4185,0.4181,0.4177,0.4167,0.4186,0.4194,0.4197,0.4155,0.4155,0.4155,0.4154,0,0,0.4085,0.4096,0.41,0.4105,0.4114,0.4123,0.4137,0.4148,0.4155,0.4164,0.4175,0.4192,0.4187,0.4194,0.4194,0.4204,0.4223,0.4198,0.4198,0.4202,0.4247,0.425,0.4254,0.4221,0.4222,0.4222,0.4246,0,0.4109,0.4132,0.4132,0.4154,0.4165,0.4161,0.4173,0.418,0.4183,0.4193,0.4196,0.4208,0.4201,0.4205,0.4214,0.4219,0.4232,0.4217,0.4232,0.4232,0.423,0.4258,0.4262,0.4284,0.4249,0.425,0.425,0,0.414,0.4148,0.4171,0.4178,0.4183,0.4193,0.4204,0.4213,0.4221,0.4223,0.423,0.4229,0.4243,0.4233,0.4252,0.4242,0.4248,0.4251,0.4252,0.4254,0.4242,0.426,0.4291,0.4295,0.4255,0.4254,0.4254,0,0.4159,0.4177,0.4192,0.4197,0.4205,0.4213,0.4217,0.4224,0.4231,0.424,0.4244,0.4255,0.4261,0.427,0.4272,0.4264,0.4291,0.4281,0.4293,0.4293,0.4299,0.4299,0.4331,0.4303,0.4303,0.4303,0.4303,0,0.4185,0.4199,0.4201,0.4211,0.4226,0.4226,0.4242,0.4245,0.4252,0.4262,0.4259,0.4269,0.4271,0.4281,0.4283,0.4299,0.4302,0.4303,0.4304,0.4304,0.4303,0.4308,0.4306,0.4304,0.4304,0.4303,0.4303,0,0.421,0.4211,0.4228,0.4235,0.4237,0.4248,0.4254,0.4263,0.4265,0.4279,0.4282,0.4286,0.4298,0.43,0.4315,0.4316,0.4335,0.4334,0.4332,0.4332,0.4343,0.4342,0.438,0.4385,0.4353,0.4354,0.4354,0,0.4227,0.4237,0.4245,0.4251,0.4255,0.4266,0.4272,0.4273,0.428,0.4289,0.4298,0.4309,0.4319,0.4338,0.4343,0.4354,0.4353,0.4366,0.4355,0.4354,0.4353,0.4353,0.4354,0.4368,0.4368,0.4368,0.4369,0,0.4256,0.4256,0.4266,0.4275,0.4283,0.4291,0.4298,0.4303,0.4305,0.4313,0.4325,0.4332,0.4347,0.4358,0.437,0.4374,0.4372,0.4372,0.4375,0.4375,0.4374,0.4375,0.4338,0.4371,0.4371,0.4371,0.437,0.437,0.4277,0.4286,0.4293,0.4303,0.4308,0.4315,0.4324,0.4327,0.4337,0.4348,0.4348,0.4361,0.4369,0.4383,0.4389,0.4399,0.4395,0.44,0.4401,0.4403,0.4404,0.4372,0.4401,0.4401,0.4401,0.4401,0.4401,0,0.4307,0.431,0.432,0.433,0.4338,0.4334,0.4342,0.4349,0.436,0.4367,0.4376,0.439,0.4401,0.4407,0.4418,0.4425,0.4425,0.4428,0.4428,0.4429,0.4406,0.4402,0.4429,0.4429,0.4429,0.4429,0.4429,0.4429,0.4323,0.4338,0.4338,0.4356,0.436,0.4372,0.4377,0.4383,0.4388,0.4404,0.4413,0.4416,0.4422,0.4434,0.4444,0.4445,0.445,0.4454,0.4455,0.4433,0.4431,0.4428,0.4424,0.4455,0.4455,0.4476,0.4477,0.4477]}]]